Regional Weather Roundup
Issued by NWS

Home | Current Version | Previous Version | Graphics & Text | Print | Product List | Glossary On
Versions: 1 2 3 4 5 6 7 8 9 10 11 12 13 14 15 16 17 18 19 20 21 22 23 24 25 26 27 28 29 30 31 32 33 34 35 36 37 38 39 40 41 42 43 44 45 46 47 48 49 50
000
ASUS45 KBOI 270910
RWRID
WEATHER ROUNDUP FOR IDAHO
NATIONAL WEATHER SERVICE BOISE ID
300 AM MDT FRI MAR 27 2015

NOTE: "FAIR" INDICATES FEW OR NO CLOUDS BELOW 12000 FEET
WITH NO SIGNIFICANT WEATHER AND/OR OBSTRUCTIONS TO VISIBILITY

IDZ012-014-271000-
SOUTHWEST IDAHO


CITY           SKY/WX    TMP DP  RH WIND       PRES   REMARKS
BOISE          CLEAR     47  40  76 SE7       30.25S
CALDWELL       CLEAR     41  30  65 S6        30.26S
MOUNTAIN HOME  CLEAR     40  35  84 E9        30.25F WCI  34
$$

IDZ016-017-271000-
SOUTHCENTRAL IDAHO


CITY           SKY/WX    TMP DP  RH WIND       PRES   REMARKS
BURLEY         CLEAR     36  32  85 CALM      30.29F
JEROME         CLEAR     43  34  70 E3        30.29F
TWIN FALLS     CLEAR     42  32  67 SE6       30.29S
$$

IDZ019>023-271000-
SOUTHEAST IDAHO


CITY           SKY/WX    TMP DP  RH WIND       PRES   REMARKS
IDAHO FALLS    CLEAR     39  31  72 SW9       30.32S WCI  33
POCATELLO      CLEAR     34  29  82 NE3       30.32S
REXBURG        CLEAR     36  30  79 CALM      30.32R
$$

IDZ006-010-011-018-031-032-271000-
CENTRAL IDAHO MOUNTAINS


CITY           SKY/WX    TMP DP  RH WIND       PRES   REMARKS
MCCALL         CLEAR     33  31  92 CALM      30.29S
HAILEY         CLEAR     41  34  75 NW9       30.34S
STANLEY          N/A     28  24  85 CALM      30.38S
SALMON         CLEAR     36  30  80 CALM      30.31R
CHALLIS        CLEAR     36  30  79 CALM      30.32S
$$

IDZ002-004-006-007-026-271000-
NORTHERN IDAHO


CITY           SKY/WX    TMP DP  RH WIND       PRES   REMARKS
LEWISTON       PTCLDY    49  45  86 E7        30.16F
LOWELL           N/A     43  41  93 NW5       30.28S
COEUR D`ALENE  CLEAR     39  37  93 E6        30.19F WCI  35
MULLAN PASS    CLEAR     41  36  82 SW6       30.24F
$$



USA.gov is the U.S. government's official web portal to all federal, state and local government web resources and services.